User: anonymous   Login
Location: Feydey
(46.3431°N, 7.0106°E)
Time: 04:03:18
(UTC+00:00)
Language:

Meteor 2-20 Rocket - Orbit

View from above orbital plane
View from above orbital plane
View from above satellite
View from above satellite

Ground track
Ground track

The orbit data is extracted from the following two-line orbital elements,

1 20827U 90086B   21261.40757313  .00000027  00000-0  10823-4 0  9991
2 20827  82.5274 142.9081 0011927 217.4733 142.5597 13.83906263564347
Epoch (UTC): 18 September 2021 09:46:54
Eccentricity: 0.0011927
inclination: 82.5274°
perigee height: 941 km
apogee height: 959 km
right ascension of ascending node: 142.9081°
argument of perigee: 217.4733°
revolutions per day: 13.83906263
mean anomaly at epoch: 142.5597°
orbit number at epoch: 56434

The dashed part of the orbit path shows where the satellite is in the earth's shadow,  

DLR